Location: Observatory
(52.1446°N, 0.4624°W)
Time: 02:06:17
(UTC+01:00)

ISS - Pass Details

Date: 18 May 2018
Orbit: 402 x 406 km, 51.6° (Epoch: 21 June)

Event Time Altitude Azimuth Distance (km) Brightness Sun altitude
Rises 03:49:18 0° 280° (W) 2,321 -0.3 -9.3°
Reaches altitude 10° 03:51:24 10° 276° (W) 1,460 -1.3 -9.0°
Maximum altitude 03:54:37 59° 197° (SSW) 472 -3.8 -8.7°
Drops below altitude 10° 03:57:50 10° 117° (ESE) 1,457 -0.8 -8.4°
Sets 03:59:58 0° 113° (ESE) 2,332 0.3 -8.2°
